FENGYUN 1C DEB, 30652

Orbit data source: Space-Track

FENGYUN 1C DEB, 30652 is space debris in SSO originally from a launch on Mon, 10 May 1999 UTC launched from the Taiyaun Space Center, China (TSC). Fengyun 1C debris stems from the Chinese weather satellite Fengyun-1C, which was intentionally destroyed by a Chinese anti-satellite missile in 2007. This event dramatically increased the amount of space debris, with thousands of trackable fragments posing hazards to satellites and human spaceflight. The Fengyun 1C debris cloud has become a focal point in discussions about space sustainability and the need for international regulations to prevent the creation of new debris.

Loading next visibility...
Identifier
30652, 1999-025APJ
Orbit
SSO
Country
Flag of CNCN / PRC
Related business
Manufacturer
Unknown
Mission
Spacecraft
Bus & Motor
Unknown
Mass
Unknown
Launch date (UTC)
1999-05-10 (27 years ago)
Launch vehicle
Unknown
Launch site
Taiyaun Space Center, China (TSC)
Object type
Payload
Rocket body
Debris
Shape & HBR
Unknown shape, 0.1 m
Radar Cross Section
Medium (>0.1 m² and <1 m²)

Expand to show TLE details & history
Last TLE update: 1 day ago

TLE from 1 day ago
0 FENGYUN 1C DEB
1 30652U 99025APJ 26236.04027382  .00000061  00000-0  61251-4 0  9992
2 30652  98.7579 266.8853 0007173 268.8904 120.8167 14.07881818  2706
Epoch: 2026-08-24T00:57Z
TLE epoch observation values (Epoch: 2026-08-24T00:57:59.658Z)
Latitude
29.4453°
Longitude
-84.90376°
Altitude
872.941 km
Speed
7.417 km/s
True Right ascension
17h 27m 41s
True Declination
29° 18' 02"
Sunlit
Object was in daylight at epoch
Visualization orbit readout
Latitude
Unknown
Longitude
Unknown
Altitude
Unknown
Speed
Unknown
Apparent Right ascension
Unknown
Apparent Declination
Unknown
Sunlit
N/A
Visualization observer readout
Local Sidereal Time
18:43:13
Azimuth
Unknown
Elevation
Unknown
Doppler factor
Unknown
Orbital elements
Apogee altitude
869.001 km
Perigee altitude
858.612 km
Semi-major axis
7,241.943 km
Eccentricity
0.00072
Inclination
98.7579°
RAAN
266.8853°
Arg. of periapsis
268.8904°
True anomaly
120.88726°
Mean anomaly
120.8167°
Eccentric anomaly
120.85198°
Mean motion
3.52177 °/min
Orbital period
102.22 mins
BSTAR
0.000061251
Loading maneuver chart data...
Computing Atmospheric mass density...
Loading historical data...
Loading historical data...
Loading historical data...
Loading historical data...
Loading historical data...
Loading historical data...
Loading historical data...

Documentation

Showing up to 5 results
|